Needles, CA

6:50 AM PST on February 06, 2016 (GMT -0800)
Needles

Weather History for KEED - November, 2011

Change the Weather History Date:

Saturday, November 19, 2011

  Actual Average Record
Temperature  
Mean Temperature 62 °F 60 °F  
Max Temperature 70 °F 72 °F 88 °F (1934)
Min Temperature 55 °F 49 °F 32 °F (1921)
Degree Days  
Heating Degree Days 2    
Cooling Degree Days 0    
Growing Degree Days 12 (Base 50)    
Moisture  
Dew Point 37 °F    
Average Humidity 40    
Maximum Humidity 53    
Minimum Humidity 28    
Precipitation  
Precipitation 0.00 in 0.01 in 1.18 in (1913)
Month to date precipitation 0.24  
Year to date precipitation 3.95  
Sea Level Pressure  
Sea Level Pressure 29.75 in    
Wind  
Wind Speed 9 mph (SSW)    
Max Wind Speed 20 mph    
Max Gust Speed 25 mph    
Visibility 10 miles    
Events      
T = Trace of Precipitation, MM = Missing Value Source: NWS Daily Summary

Daily Weather History Graph

Daily Weather History Graph

Search for Another Location

Airport or City:

Trip Planner

Search our weather history database for the weather conditions in past years. The results will help you decide how hot, cold, wet, or windy it might be!

Date:

Astronomy

Nov. 19, 2011 Rise Set
Actual Time 6:16 AM PST 4:31 PM PST
Civil Twilight 5:49 AM PST 4:58 PM PST
Nautical Twilight 5:18 AM PST 5:28 PM PST
Astronomical Twilight 4:48 AM PST 5:58 PM PST
Moon No Moon Rise 12:37 PM PST (11/19)
Length of Visible Light 11h 09m
Length of Day
10h 15m
Last Quarter, 37% of the Moon is Illuminated
Nov 19
Last Quarter
Nov 24
New
Dec 2
First Quarter
Dec 10
Full
Dec 17
Last Quarter

Hourly Weather History & Observations

Time (PST) Temp. Dew Point Humidity Pressure Visibility Wind Dir Wind Speed Gust Speed Precip Events Conditions
12:56 AM 63.0 °F 36.0 °F 37% 29.67 in 10.0 mi Calm Calm - N/A   Clear
1:56 AM 62.1 °F 39.0 °F 43% 29.68 in 10.0 mi SW 13.8 mph - N/A   Clear
2:56 AM 61.0 °F 39.9 °F 46% 29.68 in 10.0 mi SW 19.6 mph 25.3 mph N/A   Clear
3:56 AM 57.9 °F 39.0 °F 49% 29.70 in 10.0 mi WSW 12.7 mph - N/A   Clear
4:56 AM 57.0 °F 37.9 °F 49% 29.71 in 10.0 mi SW 11.5 mph - N/A   Clear
5:56 AM 55.9 °F 37.9 °F 51% 29.73 in 10.0 mi WSW 6.9 mph - N/A   Clear
6:56 AM 55.9 °F 39.0 °F 53% 29.76 in 10.0 mi WSW 10.4 mph - N/A   Clear
7:56 AM 60.1 °F 37.9 °F 44% 29.78 in 10.0 mi SW 4.6 mph - N/A   Clear
8:56 AM 64.0 °F 37.9 °F 38% 29.79 in 10.0 mi South 6.9 mph - N/A   Clear
10:56 AM 66.9 °F 37.9 °F 34% 29.77 in 10.0 mi SE 6.9 mph - N/A   Clear
11:56 AM 66.9 °F 37.9 °F 34% 29.75 in 10.0 mi SE 12.7 mph 17.3 mph N/A   Clear
12:56 PM 70.0 °F 36.0 °F 29% 29.73 in 10.0 mi SSW 9.2 mph 18.4 mph N/A   Clear
1:56 PM 69.1 °F 36.0 °F 30% 29.73 in 10.0 mi South 9.2 mph - N/A   Clear
2:56 PM 69.1 °F 36.0 °F 30% 29.73 in 10.0 mi South 13.8 mph 18.4 mph N/A   Clear
3:56 PM 68.0 °F 34.0 °F 28% 29.74 in 10.0 mi SSW 10.4 mph - N/A   Clear
4:56 PM 66.0 °F 34.0 °F 30% 29.74 in 10.0 mi SSW 6.9 mph - N/A   Clear
5:56 PM 62.1 °F 35.1 °F 37% 29.76 in 10.0 mi SW 6.9 mph - N/A   Clear
6:56 PM 63.0 °F 36.0 °F 37% 29.77 in 10.0 mi SW 9.2 mph - N/A   Clear
7:56 PM 62.1 °F 37.0 °F 39% 29.79 in 10.0 mi SW 11.5 mph - N/A   Clear
8:56 PM 61.0 °F 37.0 °F 41% 29.80 in 10.0 mi SSW 8.1 mph - N/A   Clear
9:56 PM 60.1 °F 37.9 °F 44% 29.80 in 10.0 mi SSW 10.4 mph - N/A   Clear
10:56 PM 59.0 °F 37.9 °F 46% 29.80 in 10.0 mi SW 9.2 mph - N/A   Clear
11:56 PM 57.9 °F 37.9 °F 47% 29.80 in 10.0 mi SW 9.2 mph - N/A   Clear